QPF
0.03 0.02 0.01 0.02 0.02 0.02 0.03 0.03 0.03 0.03 0.03 0.04 0.04 0.05 0.06 0.05 0.05 0.05 0.04 0.04 0.05 0.06 0.08 0.09 0.12 0.12 0.13 0.13 0.14 0.14 0.13 0.12 0.16 0.18 0.19 0.18 0.15 0.13 0.13 0.13 0.10 0.08 0.10
0.02 0.02 0.03 0.02 0.03 0.04 0.03 0.03 0.03 0.03 0.02 0.03 0.02 0.02 0.02 0.03 0.04 0.04 0.04 0.03 0.03 0.04 0.05 0.06 0.06 0.08 0.09 0.09 0.11 0.12 0.11 0.10 0.16 0.18 0.18 0.15 0.13 0.10 0.07 0.10 0.09 0.07 0.09
0.04 0.03 0.03 0.02 0.01 0.02 0.03 0.04 0.05 0.04 0.02 0.02 0.02 0.02 0.02 0.01 0.02 0.03 0.03 0.02 0.02 0.02 0.03 0.03 0.04 0.04 0.04 0.05 0.07 0.07 0.08 0.09 0.12 0.15 0.17 0.15 0.12 0.12 0.11 0.10 0.08 0.09 0.10
0.05 0.02 0.03 0.01 0.01 0.01 0.01 0.04 0.04 0.04 0.04 0.03 0.03 0.02 0.02 0.01 0.02 0.02 0.01 0.01 0.01 0.01 0.02 0.02 0.03 0.03 0.03 0.05 0.06 0.06 0.07 0.08 0.08 0.10 0.11 0.11 0.12 0.12 0.12 0.13 0.11 0.13 0.12
0.03 0.02 0.01 0.01 0.01 0.01 0.01 0.01 0.01 0.01 0.01 0.01 0.01 0.01 0.01 0.01 0.01 0.01 0.01 0.01 0.01 0.01 0.01 0.02 0.03 0.03 0.03 0.03 0.05 0.07 0.07 0.07 0.08 0.08 0.08 0.08 0.09 0.09 0.09 0.10 0.12 0.13 0.10
0.02 0.02 0.01 0.01 0.01 0.00 0.00 0.00 0.00 0.00 0.00 0.00 0.00 0.01 0.01 0.01 0.01 0.01 0.01 0.01 0.01 0.01 0.01 0.01 0.02 0.02 0.02 0.03 0.04 0.04 0.05 0.06 0.07 0.08 0.10 0.09 0.07 0.06 0.07 0.08 0.08 0.09 0.07
0.01 0.01 0.00 0.00 0.00 0.00 0.00 0.00 0.00 0.00 0.00 0.00 0.01 0.01 0.01 0.01 0.01 0.01 0.01 0.01 0.00 0.00 0.00 0.01 0.01 0.01 0.02 0.02 0.03 0.04 0.04 0.05 0.06 0.06 0.06 0.07 0.05 0.04 0.05 0.05 0.05 0.05 0.05
0.00 0.00 0.00 0.00 0.00 0.00 0.00 0.00 0.00 0.00 0.00 0.00 0.01 0.01 0.00 0.00 0.00 0.00 0.00 0.01 0.00 0.00 0.00 0.00 0.01 0.01 0.01 0.02 0.03 0.03 0.03 0.04 0.05 0.05 0.06 0.05 0.03 0.02 0.03 0.04 0.05 0.04 0.04
0.00 0.00 0.00 0.00 0.00 0.00 0.00 0.00 0.00 0.00 0.00 0.00 0.01 0.00 0.00 0.00 0.00 0.00 0.01 0.01 0.01 0.01 0.01 0.01 0.01 0.02 0.02 0.02 0.03 0.03 0.03 0.04 0.04 0.04 0.05 0.05 0.04 0.03 0.02 0.03 0.04 0.05 0.04
0.00 0.00 0.00 0.00 0.00 0.00 0.00 0.00 0.00 0.00 0.00 0.00 0.00 0.00 0.00 0.00 0.00 0.00 0.01 0.01 0.01 0.01 0.01 0.01 0.01 0.02 0.02 0.02 0.03 0.03 0.03 0.04 0.05 0.05 0.05 0.06 0.04 0.04 0.03 0.02 0.03 0.04 0.05
0.00 0.00 0.00 0.00 0.00 0.00 0.00 0.00 0.00 0.00 0.00 0.00 0.00 0.00 0.00 0.00 0.00 0.01 0.01 0.01 0.01 0.01 0.01 0.01 0.01 0.01 0.01 0.02 0.03 0.02 0.02 0.03 0.04 0.04 0.05 0.06 0.06 0.05 0.05 0.04 0.04 0.04 0.05
0.00 0.00 0.00 0.00 0.00 0.00 0.00 0.00 0.00 0.00 0.00 0.00 0.00 0.00 0.00 0.01 0.01 0.01 0.01 0.00 0.01 0.01 0.01 0.01 0.01 0.01 0.01 0.01 0.02 0.02 0.02 0.03 0.03 0.04 0.05 0.05 0.06 0.07 0.06 0.06 0.05 0.04 0.05
0.00 0.00 0.00 0.00 0.00 0.00 0.00 0.00 0.00 0.00 0.00 0.00 0.00 0.00 0.00 0.01 0.01 0.00 0.00 0.00 0.01 0.01 0.01 0.01 0.01 0.01 0.01 0.02 0.02 0.02 0.03 0.03 0.03 0.04 0.04 0.05 0.06 0.06 0.06 0.07 0.07 0.06 0.04
0.00 0.00 0.00 0.00 0.00 0.00 0.00 0.00 0.00 0.00 0.00 0.00 0.00 0.00 0.00 0.00 0.00 0.00 0.00 0.00 0.01 0.01 0.01 0.01 0.01 0.01 0.01 0.02 0.02 0.02 0.02 0.03 0.03 0.03 0.04 0.04 0.05 0.07 0.07 0.07 0.08 0.07 0.07
0.00 0.00 0.00 0.00 0.00 0.00 0.00 0.00 0.00 0.00 0.00 0.00 0.00 0.00 0.00 0.00 0.01 0.00 0.00 0.00 0.00 0.00 0.01 0.01 0.01 0.02 0.02 0.01 0.01 0.01 0.01 0.02 0.03 0.03 0.04 0.04 0.03 0.04 0.05 0.05 0.06 0.08 0.09
0.00 0.00 0.00 0.00 0.00 0.00 0.00 0.00 0.00 0.00 0.00 0.00 0.00 0.00 0.00 0.00 0.00 0.00 0.00 0.00 0.01 0.01 0.01 0.02 0.02 0.02 0.01 0.00 0.00 0.00 0.00 0.01 0.02 0.03 0.04 0.04 0.02 0.02 0.01 0.02 0.03 0.04 0.06
0.00 0.00 0.00 0.00 0.00 0.00 0.00 0.00 0.00 0.00 0.00 0.00 0.00 0.00 0.00 0.00 0.00 0.00 0.00 0.01 0.01 0.01 0.02 0.02 0.03 0.04 0.04 0.01 0.00 0.00 0.00 0.01 0.02 0.03 0.05 0.03 0.02 0.03 0.05 0.04 0.02 0.02 0.01
0.00 0.00 0.00 0.00 0.00 0.00 0.00 0.00 0.00 0.00 0.00 0.00 0.00 0.00 0.00 0.00 0.00 0.00 0.01 0.01 0.02 0.02 0.03 0.03 0.03 0.04 0.04 0.01 0.00 0.00 0.00 0.01 0.02 0.04 0.05 0.07 0.08 0.06 0.07 0.09 0.09 0.07 0.05
0.00 0.00 0.00 0.00 0.00 0.00 0.00 0.00 0.00 0.00 0.00 0.00 0.00 0.00 0.00 0.00 0.00 0.00 0.01 0.01 0.02 0.02 0.02 0.03 0.03 0.04 0.05 0.02 0.00 0.00 0.01 0.02 0.04 0.05 0.06 0.07 0.09 0.07 0.03 0.06 0.09 0.09 0.09
0.00 0.00 0.00 0.00 0.00 0.00 0.00 0.00 0.00 0.00 0.00 0.00 0.00 0.00 0.00 0.00 0.00 0.01 0.01 0.01 0.02 0.02 0.02 0.02 0.03 0.03 0.04 0.02 0.00 0.00 0.01 0.03 0.05 0.07 0.09 0.05 0.03 0.02 0.01 0.05 0.10 0.11 0.11
0.00 0.00 0.00 0.00 0.00 0.00 0.00 0.00 0.00 0.00 0.00 0.00 0.00 0.00 0.01 0.01 0.01 0.01 0.02 0.02 0.02 0.03 0.03 0.03 0.03 0.04 0.03 0.02 0.00 0.00 0.01 0.03 0.05 0.06 0.09 0.10 0.03 0.01 0.01 0.03 0.07 0.10 0.11
0.00 0.00 0.00 0.00 0.00 0.00 0.00 0.00 0.00 0.00 0.00 0.00 0.00 0.01 0.01 0.01 0.01 0.01 0.02 0.03 0.03 0.03 0.04 0.04 0.03 0.04 0.05 0.03 0.02 0.00 0.00 0.01 0.02 0.05 0.08 0.09 0.02 0.00 0.01 0.01 0.02 0.04 0.06
0.00 0.00 0.00 0.00 0.00 0.00 0.00 0.00 0.00 0.00 0.00 0.00 0.00 0.01 0.01 0.02 0.02 0.02 0.02 0.03 0.04 0.03 0.03 0.02 0.02 0.03 0.04 0.05 0.01 0.01 0.00 0.00 0.01 0.03 0.03 0.03 0.01 0.01 0.02 0.01 0.01 0.03 0.06
0.00 0.00 0.00 0.00 0.00 0.00 0.00 0.00 0.00 0.00 0.00 0.00 0.00 0.00 0.01 0.01 0.01 0.01 0.01 0.02 0.03 0.03 0.02 0.02 0.02 0.03 0.04 0.05 0.04 0.04 0.04 0.04 0.04 0.04 0.03 0.01 0.01 0.02 0.03 0.04 0.03 0.04 0.07
0.00 0.00 0.00 0.00 0.00 0.00 0.00 0.00 0.00 0.00 0.00 0.00 0.00 0.00 0.00 0.00 0.01 0.01 0.01 0.01 0.02 0.01 0.00 0.00 0.01 0.01 0.02 0.02 0.00 0.01 0.02 0.03 0.04 0.04 0.06 0.08 0.09 0.09 0.09 0.11 0.11 0.10 0.08
0.00 0.00 0.00 0.00 0.00 0.00 0.00 0.00 0.00 0.00 0.00 0.00 0.01 0.00 0.00 0.00 0.00 0.00 0.01 0.01 0.01 0.00 0.00 0.00 0.00 0.00 0.00 0.00 0.00 0.00 0.00 0.00 0.00 0.01 0.06 0.10 0.14 0.15 0.15 0.16 0.16 0.14 0.13
MSLP
1011.23 1011.63 1011.93 1012.08 1012.08 1011.97 1011.80 1011.64 1011.56 1011.57 1011.66 1011.80 1011.95 1012.05 1012.08 1012.04 1011.94 1011.83 1011.76 1011.77 1011.89 1012.12 1012.44 1012.82 1013.20 1013.54 1013.83 1014.04 1014.18 1014.27 1014.32 1014.35 1014.35 1014.33 1014.25 1014.12 1013.91 1013.64 1013.32 1013.00 1012.72 1012.55 1012.51
1011.55 1011.97 1012.28 1012.43 1012.42 1012.28 1012.08 1011.91 1011.82 1011.84 1011.95 1012.11 1012.26 1012.35 1012.34 1012.23 1012.04 1011.81 1011.63 1011.54 1011.57 1011.74 1012.04 1012.41 1012.81 1013.17 1013.48 1013.70 1013.84 1013.91 1013.95 1013.97 1013.99 1013.98 1013.95 1013.85 1013.69 1013.44 1013.13 1012.78 1012.45 1012.20 1012.07
1011.68 1012.15 1012.50 1012.69 1012.70 1012.58 1012.41 1012.25 1012.18 1012.22 1012.36 1012.54 1012.70 1012.79 1012.75 1012.58 1012.31 1011.99 1011.71 1011.51 1011.46 1011.57 1011.82 1012.17 1012.56 1012.92 1013.22 1013.44 1013.57 1013.64 1013.66 1013.68 1013.70 1013.72 1013.72 1013.67 1013.56 1013.35 1013.06 1012.71 1012.35 1012.03 1011.82
1011.68 1012.20 1012.62 1012.87 1012.94 1012.88 1012.76 1012.64 1012.61 1012.68 1012.84 1013.04 1013.22 1013.30 1013.25 1013.05 1012.73 1012.35 1011.99 1011.71 1011.59 1011.63 1011.82 1012.12 1012.47 1012.81 1013.09 1013.29 1013.40 1013.45 1013.46 1013.47 1013.50 1013.54 1013.57 1013.57 1013.51 1013.35 1013.09 1012.76 1012.38 1012.03 1011.74
1011.61 1012.19 1012.68 1013.01 1013.16 1013.17 1013.11 1013.04 1013.05 1013.14 1013.32 1013.53 1013.72 1013.81 1013.76 1013.55 1013.22 1012.81 1012.41 1012.09 1011.90 1011.88 1012.00 1012.24 1012.54 1012.83 1013.06 1013.22 1013.31 1013.33 1013.33 1013.33 1013.35 1013.41 1013.47 1013.51 1013.49 1013.38 1013.17 1012.86 1012.50 1012.13 1011.80
1011.50 1012.14 1012.71 1013.12 1013.35 1013.44 1013.43 1013.41 1013.43 1013.54 1013.72 1013.93 1014.12 1014.22 1014.19 1014.00 1013.69 1013.30 1012.90 1012.56 1012.34 1012.25 1012.31 1012.48 1012.70 1012.93 1013.10 1013.21 1013.25 1013.24 1013.22 1013.20 1013.22 1013.28 1013.35 1013.42 1013.44 1013.37 1013.21 1012.95 1012.62 1012.26 1011.92
1011.39 1012.08 1012.71 1013.20 1013.50 1013.65 1013.69 1013.70 1013.73 1013.82 1013.98 1014.18 1014.36 1014.47 1014.47 1014.33 1014.06 1013.72 1013.35 1013.03 1012.79 1012.68 1012.68 1012.77 1012.91 1013.05 1013.16 1013.21 1013.20 1013.16 1013.10 1013.06 1013.07 1013.11 1013.19 1013.26 1013.30 1013.28 1013.16 1012.96 1012.68 1012.36 1012.04
1011.30 1012.03 1012.71 1013.25 1013.61 1013.80 1013.88 1013.89 1013.91 1013.98 1014.11 1014.27 1014.44 1014.56 1014.58 1014.49 1014.30 1014.02 1013.72 1013.43 1013.20 1013.07 1013.02 1013.04 1013.11 1013.17 1013.20 1013.19 1013.13 1013.05 1012.96 1012.89 1012.87 1012.88 1012.94 1013.01 1013.06 1013.06 1012.99 1012.85 1012.64 1012.38 1012.11
1011.24 1011.99 1012.69 1013.27 1013.67 1013.90 1013.99 1014.01 1014.01 1014.05 1014.13 1014.25 1014.39 1014.51 1014.56 1014.52 1014.39 1014.19 1013.96 1013.72 1013.52 1013.38 1013.29 1013.26 1013.26 1013.25 1013.22 1013.15 1013.04 1012.92 1012.79 1012.69 1012.62 1012.60 1012.62 1012.67 1012.70 1012.72 1012.69 1012.60 1012.47 1012.29 1012.09
1011.21 1011.96 1012.67 1013.26 1013.69 1013.94 1014.05 1014.08 1014.07 1014.07 1014.11 1014.19 1014.30 1014.39 1014.45 1014.45 1014.38 1014.25 1014.08 1013.90 1013.73 1013.59 1013.48 1013.41 1013.35 1013.28 1013.19 1013.08 1012.94 1012.77 1012.62 1012.48 1012.37 1012.30 1012.27 1012.27 1012.28 1012.29 1012.29 1012.25 1012.19 1012.10 1011.99
1011.21 1011.94 1012.64 1013.23 1013.67 1013.95 1014.09 1014.13 1014.12 1014.10 1014.11 1014.15 1014.22 1014.29 1014.35 1014.36 1014.33 1014.24 1014.12 1013.98 1013.83 1013.70 1013.58 1013.48 1013.38 1013.27 1013.15 1013.00 1012.83 1012.65 1012.46 1012.28 1012.13 1012.01 1011.92 1011.87 1011.84 1011.83 1011.83 1011.84 1011.84 1011.83 1011.81
1011.23 1011.93 1012.60 1013.18 1013.62 1013.92 1014.10 1014.17 1014.19 1014.18 1014.17 1014.19 1014.22 1014.26 1014.29 1014.30 1014.27 1014.20 1014.10 1013.98 1013.85 1013.72 1013.60 1013.48 1013.36 1013.23 1013.09 1012.92 1012.74 1012.54 1012.34 1012.13 1011.94 1011.76 1011.61 1011.50 1011.42 1011.38 1011.37 1011.40 1011.45 1011.51 1011.57
1011.26 1011.90 1012.52 1013.08 1013.53 1013.86 1014.08 1014.20 1014.26 1014.28 1014.29 1014.29 1014.30 1014.30 1014.29 1014.27 1014.22 1014.14 1014.04 1013.93 1013.80 1013.67 1013.54 1013.42 1013.29 1013.16 1013.01 1012.84 1012.66 1012.46 1012.24 1012.01 1011.78 1011.56 1011.36 1011.18 1011.05 1010.97 1010.94 1010.97 1011.05 1011.16 1011.28
1011.28 1011.85 1012.42 1012.93 1013.38 1013.74 1014.01 1014.20 1014.32 1014.39 1014.42 1014.42 1014.41 1014.38 1014.33 1014.26 1014.17 1014.06 1013.94 1013.81 1013.68 1013.55 1013.42 1013.29 1013.17 1013.04 1012.90 1012.75 1012.57 1012.37 1012.15 1011.91 1011.65 1011.39 1011.14 1010.91 1010.72 1010.59 1010.54 1010.55 1010.63 1010.76 1010.93
1011.29 1011.78 1012.28 1012.75 1013.18 1013.56 1013.87 1014.13 1014.31 1014.43 1014.50 1014.52 1014.49 1014.43 1014.34 1014.22 1014.08 1013.93 1013.78 1013.63 1013.49 1013.35 1013.22 1013.10 1012.99 1012.87 1012.75 1012.61 1012.45 1012.26 1012.04 1011.79 1011.51 1011.22 1010.93 1010.66 1010.43 1010.25 1010.16 1010.15 1010.21 1010.34 1010.51
1011.29 1011.70 1012.12 1012.53 1012.94 1013.32 1013.67 1013.97 1014.21 1014.39 1014.49 1014.53 1014.50 1014.41 1014.28 1014.12 1013.93 1013.74 1013.55 1013.38 1013.22 1013.08 1012.96 1012.85 1012.75 1012.65 1012.54 1012.41 1012.27 1012.09 1011.88 1011.62 1011.34 1011.03 1010.72 1010.41 1010.14 1009.93 1009.80 1009.75 1009.78 1009.89 1010.05
1011.30 1011.63 1011.97 1012.32 1012.68 1013.05 1013.41 1013.74 1014.02 1014.23 1014.37 1014.42 1014.39 1014.29 1014.13 1013.93 1013.70 1013.48 1013.26 1013.07 1012.90 1012.76 1012.65 1012.55 1012.46 1012.37 1012.28 1012.17 1012.03 1011.86 1011.65 1011.40 1011.12 1010.80 1010.47 1010.15 1009.86 1009.62 1009.45 1009.36 1009.36 1009.43 1009.56
1011.30 1011.58 1011.85 1012.14 1012.46 1012.79 1013.14 1013.47 1013.76 1014.00 1014.15 1014.21 1014.18 1014.07 1013.89 1013.66 1013.42 1013.17 1012.93 1012.73 1012.56 1012.42 1012.31 1012.22 1012.15 1012.07 1011.99 1011.89 1011.76 1011.59 1011.39 1011.14 1010.86 1010.54 1010.21 1009.89 1009.58 1009.32 1009.12 1009.00 1008.96 1008.99 1009.07
1011.32 1011.56 1011.79 1012.02 1012.29 1012.58 1012.89 1013.21 1013.49 1013.72 1013.88 1013.94 1013.91 1013.79 1013.60 1013.36 1013.10 1012.84 1012.60 1012.40 1012.22 1012.09 1011.99 1011.91 1011.85 1011.78 1011.70 1011.60 1011.47 1011.31 1011.11 1010.87 1010.59 1010.28 1009.96 1009.64 1009.33 1009.06 1008.84 1008.69 1008.61 1008.59 1008.63
1011.31 1011.55 1011.76 1011.96 1012.18 1012.43 1012.70 1012.98 1013.24 1013.46 1013.60 1013.66 1013.62 1013.50 1013.31 1013.07 1012.81 1012.55 1012.31 1012.10 1011.93 1011.81 1011.71 1011.64 1011.58 1011.52 1011.44 1011.35 1011.22 1011.06 1010.86 1010.62 1010.35 1010.05 1009.74 1009.42 1009.12 1008.85 1008.62 1008.45 1008.33 1008.27 1008.26
1011.24 1011.51 1011.73 1011.92 1012.12 1012.33 1012.57 1012.81 1013.04 1013.23 1013.35 1013.40 1013.36 1013.24 1013.06 1012.82 1012.56 1012.30 1012.06 1011.85 1011.69 1011.57 1011.48 1011.42 1011.36 1011.31 1011.24 1011.14 1011.02 1010.86 1010.66 1010.42 1010.16 1009.87 1009.57 1009.26 1008.97 1008.70 1008.46 1008.27 1008.13 1008.04 1007.99
1011.06 1011.38 1011.63 1011.84 1012.03 1012.23 1012.44 1012.66 1012.86 1013.02 1013.14 1013.17 1013.13 1013.01 1012.83 1012.60 1012.34 1012.08 1011.85 1011.64 1011.48 1011.36 1011.28 1011.23 1011.18 1011.14 1011.08 1010.99 1010.87 1010.72 1010.52 1010.29 1010.03 1009.75 1009.45 1009.15 1008.86 1008.59 1008.35 1008.15 1007.99 1007.87 1007.80
1010.73 1011.12 1011.42 1011.66 1011.88 1012.08 1012.28 1012.48 1012.67 1012.82 1012.92 1012.95 1012.91 1012.79 1012.61 1012.38 1012.12 1011.87 1011.63 1011.43 1011.27 1011.16 1011.09 1011.04 1011.01 1010.99 1010.94 1010.87 1010.77 1010.62 1010.43 1010.21 1009.95 1009.66 1009.36 1009.06 1008.77 1008.50 1008.25 1008.04 1007.87 1007.74 1007.65
1010.24 1010.69 1011.05 1011.34 1011.58 1011.81 1012.02 1012.22 1012.40 1012.55 1012.64 1012.68 1012.63 1012.52 1012.34 1012.12 1011.86 1011.61 1011.37 1011.17 1011.01 1010.90 1010.84 1010.82 1010.81 1010.81 1010.79 1010.75 1010.66 1010.53 1010.35 1010.13 1009.86 1009.57 1009.26 1008.95 1008.65 1008.37 1008.12 1007.91 1007.73 1007.60 1007.50
1009.61 1010.11 1010.52 1010.85 1011.14 1011.39 1011.62 1011.83 1012.02 1012.17 1012.27 1012.30 1012.26 1012.15 1011.98 1011.76 1011.50 1011.25 1011.01 1010.81 1010.66 1010.56 1010.52 1010.52 1010.54 1010.57 1010.59 1010.57 1010.51 1010.40 1010.23 1010.01 1009.74 1009.43 1009.11 1008.78 1008.47 1008.17 1007.92 1007.70 1007.52 1007.39 1007.29
1008.92 1009.44 1009.87 1010.24 1010.55 1010.83 1011.08 1011.30 1011.50 1011.65 1011.75 1011.79 1011.76 1011.65 1011.48 1011.26 1011.02 1010.76 1010.53 1010.33 1010.19 1010.11 1010.09 1010.12 1010.17 1010.24 1010.29 1010.31 1010.28 1010.18 1010.02 1009.80 1009.52 1009.20 1008.86 1008.51 1008.18 1007.87 1007.61 1007.39 1007.22 1007.10 1007.01
Thickness
5761 5763 5762 5761 5757 5753 5751 5748 5745 5743 5741 5737 5734 5732 5730 5731 5730 5729 5727 5724 5722 5720 5718 5716 5715 5714 5711 5710 5710 5708 5707 5708 5709 5707 5707 5712 5718 5720 5721 5722 5724 5726 5728
5752 5753 5754 5754 5751 5747 5746 5742 5739 5737 5735 5732 5731 5729 5727 5726 5726 5725 5722 5719 5716 5714 5714 5711 5709 5708 5706 5706 5705 5704 5701 5702 5704 5700 5698 5698 5705 5714 5721 5721 5721 5724 5728
5748 5748 5748 5748 5747 5744 5741 5738 5734 5731 5729 5728 5726 5724 5722 5721 5719 5717 5715 5714 5712 5710 5707 5705 5703 5701 5700 5699 5698 5698 5695 5693 5696 5697 5694 5691 5693 5701 5711 5716 5719 5721 5723
5750 5748 5747 5745 5744 5742 5739 5734 5729 5725 5723 5722 5718 5714 5712 5709 5710 5710 5710 5708 5707 5705 5703 5701 5698 5695 5693 5692 5692 5692 5690 5688 5687 5690 5692 5693 5694 5690 5693 5704 5711 5716 5718
5751 5748 5746 5744 5742 5741 5737 5732 5726 5721 5719 5716 5714 5709 5706 5704 5704 5703 5702 5701 5701 5700 5698 5696 5693 5689 5687 5685 5684 5683 5682 5682 5681 5681 5683 5685 5687 5688 5684 5686 5696 5704 5711
5751 5748 5746 5743 5740 5738 5734 5729 5721 5717 5714 5712 5709 5705 5700 5698 5696 5695 5694 5694 5694 5693 5692 5689 5685 5682 5679 5678 5676 5676 5675 5674 5674 5674 5675 5676 5677 5678 5679 5680 5686 5691 5700
5752 5747 5743 5739 5736 5733 5729 5724 5718 5712 5710 5707 5704 5700 5697 5694 5692 5690 5688 5686 5685 5684 5682 5680 5676 5674 5672 5670 5669 5668 5667 5667 5666 5666 5667 5669 5671 5674 5676 5676 5678 5683 5691
5752 5747 5743 5739 5735 5731 5725 5721 5715 5709 5706 5703 5699 5696 5693 5690 5688 5684 5681 5679 5678 5676 5674 5672 5669 5667 5664 5663 5661 5659 5659 5660 5659 5660 5660 5661 5663 5667 5669 5670 5670 5671 5678
5752 5747 5744 5739 5734 5729 5723 5719 5713 5707 5703 5700 5696 5694 5690 5686 5683 5679 5677 5675 5672 5670 5667 5663 5661 5658 5656 5654 5652 5651 5651 5651 5651 5652 5653 5654 5656 5660 5663 5665 5666 5663 5662
5752 5748 5743 5737 5732 5727 5722 5718 5712 5706 5702 5698 5694 5692 5688 5684 5680 5676 5672 5669 5666 5662 5659 5656 5653 5651 5649 5647 5645 5643 5643 5642 5643 5644 5645 5646 5648 5651 5653 5656 5658 5660 5659
5752 5747 5742 5736 5731 5726 5721 5715 5710 5706 5701 5697 5692 5688 5684 5681 5677 5673 5669 5665 5661 5657 5653 5650 5647 5644 5642 5640 5637 5636 5635 5635 5635 5635 5637 5638 5640 5641 5643 5646 5648 5651 5653
5754 5748 5741 5734 5728 5723 5718 5713 5708 5704 5699 5696 5691 5686 5682 5678 5673 5669 5665 5661 5657 5652 5649 5645 5642 5638 5636 5634 5630 5628 5628 5626 5626 5626 5627 5629 5630 5632 5633 5635 5637 5641 5645
5751 5745 5738 5731 5725 5720 5715 5711 5706 5701 5697 5693 5687 5683 5678 5673 5668 5664 5660 5656 5652 5647 5644 5640 5636 5632 5630 5627 5624 5622 5620 5618 5617 5617 5618 5619 5620 5621 5623 5625 5627 5630 5635
5746 5741 5733 5728 5723 5718 5713 5708 5704 5699 5694 5689 5683 5678 5674 5669 5664 5660 5656 5652 5647 5642 5639 5635 5631 5627 5624 5621 5618 5615 5612 5610 5609 5609 5609 5610 5611 5612 5613 5615 5617 5620 5623
5744 5738 5731 5726 5721 5716 5710 5706 5701 5696 5691 5685 5680 5676 5671 5667 5662 5657 5652 5648 5643 5639 5634 5630 5625 5621 5618 5616 5610 5607 5605 5602 5600 5600 5600 5601 5603 5604 5604 5606 5608 5609 5612
5744 5738 5732 5725 5718 5713 5708 5704 5698 5693 5688 5682 5678 5674 5669 5664 5658 5653 5649 5644 5639 5634 5629 5624 5619 5615 5613 5608 5602 5597 5595 5593 5591 5591 5592 5592 5594 5596 5597 5598 5599 5600 5601
5744 5737 5731 5724 5718 5713 5707 5701 5697 5692 5686 5681 5676 5672 5666 5660 5655 5650 5645 5640 5634 5629 5624 5619 5615 5611 5606 5601 5596 5591 5587 5585 5585 5584 5583 5585 5588 5589 5590 5590 5591 5592 5594
5744 5737 5731 5724 5718 5713 5707 5701 5696 5691 5685 5680 5675 5670 5664 5658 5652 5646 5641 5635 5630 5625 5620 5615 5611 5606 5602 5596 5591 5586 5582 5580 5580 5579 5578 5577 5578 5579 5579 5581 5583 5584 5587
5744 5738 5732 5725 5717 5711 5705 5699 5693 5689 5684 5678 5673 5668 5661 5655 5649 5643 5637 5632 5626 5621 5616 5612 5607 5602 5598 5592 5586 5579 5577 5576 5575 5574 5573 5572 5571 5571 5570 5571 5573 5576 5578
5743 5736 5730 5723 5715 5709 5703 5695 5690 5686 5681 5676 5671 5665 5659 5652 5646 5640 5635 5629 5623 5618 5613 5609 5605 5600 5595 5588 5582 5575 5573 5571 5570 5568 5567 5565 5564 5563 5561 5562 5564 5566 5569
5740 5734 5727 5719 5712 5707 5700 5692 5687 5683 5679 5674 5668 5662 5656 5650 5645 5639 5633 5627 5621 5616 5611 5606 5602 5598 5593 5587 5580 5573 5568 5566 5563 5562 5561 5559 5556 5554 5553 5553 5554 5557 5559
5735 5730 5722 5715 5710 5705 5697 5689 5684 5681 5677 5671 5665 5660 5654 5648 5645 5637 5631 5625 5619 5613 5609 5604 5599 5596 5591 5585 5579 5571 5564 5560 5557 5555 5554 5552 5548 5546 5545 5546 5547 5548 5549
5732 5727 5719 5712 5707 5702 5695 5687 5683 5679 5673 5667 5661 5657 5652 5647 5641 5635 5629 5623 5618 5611 5606 5601 5596 5593 5588 5582 5575 5568 5562 5557 5552 5552 5549 5545 5542 5541 5541 5541 5541 5541 5544
5728 5723 5716 5709 5703 5699 5694 5688 5682 5676 5669 5663 5658 5654 5650 5645 5641 5635 5628 5622 5615 5609 5603 5597 5593 5588 5584 5578 5571 5565 5560 5555 5551 5548 5545 5542 5540 5538 5538 5540 5540 5540 5543
5725 5720 5713 5706 5701 5697 5691 5686 5681 5674 5666 5660 5656 5651 5648 5645 5639 5634 5628 5621 5615 5608 5600 5595 5589 5583 5578 5572 5562 5557 5555 5551 5546 5539 5540 5541 5541 5540 5540 5541 5541 5542 5542
5721 5715 5709 5703 5699 5694 5688 5683 5678 5671 5663 5657 5652 5649 5646 5643 5638 5632 5627 5622 5614 5607 5600 5592 5585 5580 5574 5568 5562 5556 5550 5545 5539 5535 5540 5541 5540 5540 5540 5540 5540 5541 5541